| time (UTC) | temp C | wind direction | speed KPH | gust KPH | rain 1hr cm | rain 24hr cm | rain mn cm | humidity % | barometer mb |
| 20260509001545 | 17 | 0 | 0.0 | 1.6 | 0.00 | 0.03 | 0.03 | 43 | 1014.8 |
| 20260509000049 | 18 | 0 | 0.0 | 1.6 | 0.00 | 0.03 | 0.03 | 43 | 1015.0 |
| 20260508234543 | 18 | 0 | 0.0 | 1.6 | 0.00 | 0.03 | 0.03 | 41 | 1015.1 |
| 20260508233101 | 18 | 0 | 0.0 | 3.2 | 0.00 | 0.03 | 0.03 | 38 | 1015.2 |
| 20260508231552 | 18 | 0 | 0.0 | 8.0 | 0.00 | 0.03 | 0.03 | 37 | 1015.3 |
| 20260508230058 | 18 | 0 | 1.6 | 8.0 | 0.00 | 0.03 | 0.03 | 36 | 1015.0 |
| 20260508224605 | 19 | 0 | 0.0 | 8.0 | 0.00 | 0.03 | 0.03 | 36 | 1015.0 |
| 20260508223047 | 19 | 271 | 0.0 | 3.2 | 0.00 | 0.03 | 0.03 | 37 | 1015.0 |
| 20260508221549 | 19 | 244 | 1.6 | 8.0 | 0.00 | 0.03 | 0.03 | 35 | 1014.9 |
| 20260508220055 | 20 | 0 | 0.0 | 17.7 | 0.00 | 0.03 | 0.03 | 37 | 1014.6 |
| 20260508214551 | 20 | 265 | 1.6 | 8.0 | 0.00 | 0.03 | 0.03 | 35 | 1014.8 |
| 20260508213049 | 21 | 294 | 1.6 | 12.9 | 0.00 | 0.03 | 0.03 | 32 | 1015.0 |
| 20260508211554 | 20 | 147 | 3.2 | 8.0 | 0.00 | 0.03 | 0.03 | 31 | 1014.7 |
| 20260508210050 | 20 | 221 | 0.0 | 12.9 | 0.00 | 0.03 | 0.03 | 35 | 1014.9 |
| 20260508204551 | 20 | 0 | 1.6 | 12.9 | 0.00 | 0.33 | 0.03 | 33 | 1015.1 |
| 20260508203055 | 20 | 0 | 3.2 | 16.1 | 0.00 | 0.33 | 0.03 | 33 | 1015.6 |
| 20260508201549 | 20 | 186 | 4.8 | 14.5 | 0.00 | 0.33 | 0.03 | 33 | 1015.7 |
| 20260508200103 | 20 | 173 | 3.2 | 16.1 | 0.00 | 0.33 | 0.03 | 33 | 1015.7 |
| 20260508194539 | 21 | 333 | 3.2 | 11.3 | 0.00 | 0.46 | 0.03 | 33 | 1015.7 |
| 20260508193048 | 20 | 0 | 3.2 | 11.3 | 0.00 | 0.46 | 0.03 | 31 | 1016.0 |
| 20260508191552 | 21 | 275 | 0.0 | 9.7 | 0.00 | 0.46 | 0.03 | 32 | 1016.2 |
| 20260508190045 | 20 | 123 | 3.2 | 17.7 | 0.00 | 0.46 | 0.03 | 31 | 1016.3 |
| 20260508184553 | 20 | 150 | 6.4 | 14.5 | 0.00 | 0.46 | 0.03 | 32 | 1016.6 |
| 20260508183050 | 21 | 240 | 1.6 | 6.4 | 0.00 | 0.46 | 0.03 | 34 | 1016.6 |
| 20260508181551 | 19 | 111 | 1.6 | 14.5 | 0.00 | 0.46 | 0.03 | 32 | 1016.8 |
| 20260508180049 | 20 | 121 | 3.2 | 11.3 | 0.00 | 0.46 | 0.03 | 31 | 1017.0 |
| 20260508174603 | 21 | 0 | 0.0 | 3.2 | 0.00 | 0.46 | 0.03 | 31 | 1017.2 |
| 20260508173048 | 20 | 0 | 0.0 | 4.8 | 0.00 | 0.46 | 0.03 | 33 | 1017.5 |
| 20260508171551 | 18 | 0 | 1.6 | 8.0 | 0.00 | 0.46 | 0.03 | 31 | 1017.6 |
| 20260508170055 | 19 | 112 | 0.0 | 4.8 | 0.00 | 0.46 | 0.03 | 35 | 1017.6 |
| 20260508164549 | 18 | 263 | 0.0 | 4.8 | 0.00 | 0.46 | 0.03 | 37 | 1017.9 |
| 20260508163047 | 18 | 0 | 1.6 | 4.8 | 0.00 | 0.46 | 0.03 | 35 | 1018.3 |
| 20260508161549 | 18 | 170 | 0.0 | 3.2 | 0.00 | 0.46 | 0.03 | 34 | 1018.5 |
| 20260508160052 | 18 | 0 | 1.6 | 9.7 | 0.00 | 0.46 | 0.03 | 41 | 1018.6 |
| 20260508154552 | 18 | 101 | 0.0 | 6.4 | 0.00 | 0.46 | 0.03 | 36 | 1018.8 |
| 20260508153046 | 17 | 296 | 1.6 | 4.8 | 0.00 | 0.46 | 0.03 | 41 | 1019.0 |
| 20260508151557 | 17 | 0 | 1.6 | 4.8 | 0.00 | 0.46 | 0.03 | 41 | 1019.1 |
| 20260508150050 | 16 | 0 | 0.0 | 11.3 | 0.00 | 0.46 | 0.03 | 40 | 1019.1 |
| 20260508144551 | 16 | 96 | 0.0 | 3.2 | 0.00 | 0.51 | 0.03 | 44 | 1018.9 |
| 20260508143055 | 16 | 261 | 1.6 | 3.2 | 0.00 | 0.51 | 0.03 | 46 | 1018.9 |
| 20260508141551 | 16 | 0 | 0.0 | 3.2 | 0.00 | 0.51 | 0.03 | 47 | 1018.9 |
| 20260508140056 | 16 | 0 | 0.0 | 3.2 | 0.00 | 0.51 | 0.03 | 47 | 1018.8 |
| 20260508134553 | 15 | 0 | 0.0 | 3.2 | 0.00 | 0.69 | 0.03 | 51 | 1018.7 |
| 20260508133055 | 14 | 0 | 0.0 | 1.6 | 0.00 | 0.69 | 0.03 | 63 | 1018.6 |
| 20260508131550 | 13 | 0 | 0.0 | 1.6 | 0.00 | 0.69 | 0.03 | 72 | 1018.4 |
| 20260508130100 | 12 | 0 | 0.0 | 1.6 | 0.00 | 0.69 | 0.03 | 82 | 1018.4 |
| 20260508124553 | 11 | 0 | 0.0 | 1.6 | 0.00 | 0.89 | 0.03 | 81 | 1018.4 |
| 20260508123057 | 10 | 0 | 0.0 | 1.6 | 0.00 | 0.89 | 0.03 | 90 | 1018.3 |
| 20260508121544 | 8 | 0 | 0.0 | 1.6 | 0.00 | 0.89 | 0.03 | 94 | 1018.2 |
| 20260508120049 | 7 | 0 | 0.0 | 1.6 | 0.00 | 0.89 | 0.03 | 94 | 1017.9 |
| 20260508114548 | 7 | 0 | 0.0 | 0.0 | 0.00 | 0.91 | 0.03 | 95 | 1017.8 |
| 20260508113043 | 7 | 0 | 0.0 | 1.6 | 0.00 | 0.91 | 0.03 | 95 | 1017.8 |
| 20260508111544 | 6 | 0 | 0.0 | 0.0 | 0.00 | 0.91 | 0.03 | 94 | 1017.6 |
| 20260508110048 | 6 | 0 | 0.0 | 0.0 | 0.00 | 0.91 | 0.03 | 94 | 1017.3 |
| 20260508104558 | 6 | 0 | 0.0 | 1.6 | 0.00 | 0.94 | 0.03 | 94 | 1017.1 |
| 20260508103051 | 6 | 0 | 0.0 | 1.6 | 0.00 | 0.94 | 0.03 | 94 | 1017.0 |
| 20260508101547 | 6 | 0 | 0.0 | 0.0 | 0.00 | 0.94 | 0.03 | 94 | 1016.8 |
| 20260508100051 | 6 | 0 | 0.0 | 1.6 | 0.00 | 0.94 | 0.03 | 94 | 1016.6 |
| 20260508094550 | 6 | 0 | 0.0 | 0.0 | 0.00 | 0.97 | 0.03 | 94 | 1016.1 |
| 20260508093045 | 6 | 0 | 0.0 | 1.6 | 0.00 | 0.97 | 0.03 | 94 | 1016.3 |
| 20260508091558 | 7 | 0 | 0.0 | 1.6 | 0.00 | 0.97 | 0.03 | 94 | 1016.2 |
| 20260508084552 | 7 | 0 | 0.0 | 1.6 | 0.00 | 0.97 | 0.03 | 94 | 1015.9 |
| 20260508083049 | 7 | 0 | 0.0 | 0.0 | 0.00 | 0.97 | 0.03 | 94 | 1015.7 |
| 20260508081552 | 7 | 0 | 0.0 | 0.0 | 0.00 | 0.97 | 0.03 | 94 | 1015.7 |
| 20260508074548 | 7 | 0 | 0.0 | 0.0 | 0.00 | 0.99 | 0.03 | 94 | 1015.6 |
| 20260508073059 | 7 | 0 | 0.0 | 0.0 | 0.00 | 0.99 | 0.03 | 94 | 1015.4 |
| 20260508071559 | 8 | 0 | 0.0 | 0.0 | 0.00 | 0.99 | 0.03 | 94 | 1015.1 |
| 20260508070100 | 8 | 0 | 0.0 | 0.0 | 0.00 | 0.99 | 0.03 | 94 | 1015.1 |
| 20260508064548 | 8 | 0 | 0.0 | 0.0 | 0.00 | 0.99 | 0.03 | 94 | 1015.1 |
| 20260508063053 | 8 | 0 | 0.0 | 0.0 | 0.00 | 0.99 | 0.03 | 93 | 1015.1 |
| 20260508061551 | 8 | 0 | 0.0 | 0.0 | 0.03 | 0.99 | 0.03 | 93 | 1015.1 |
| 20260508060049 | 8 | 0 | 0.0 | 0.0 | 0.03 | 0.99 | 0.03 | 93 | 1015.2 |
| 20260508054549 | 8 | 0 | 0.0 | 0.0 | 0.03 | 1.07 | 0.03 | 93 | 1014.9 |
| 20260508053050 | 9 | 0 | 0.0 | 0.0 | 0.03 | 1.07 | 0.03 | 93 | 1014.9 |
| 20260508051542 | 9 | 0 | 0.0 | 0.0 | 0.00 | 1.04 | 0.00 | 93 | 1015.1 |
| 20260508050049 | 9 | 0 | 0.0 | 0.0 | 0.00 | 1.04 | 0.00 | 93 | 1014.8 |
| 20260508044548 | 10 | 0 | 0.0 | 1.6 | 0.00 | 1.04 | 0.00 | 93 | 1014.7 |
| 20260508043048 | 10 | 0 | 0.0 | 0.0 | 0.00 | 1.04 | 0.00 | 93 | 1014.6 |
| 20260508041547 | 10 | 0 | 0.0 | 0.0 | 0.00 | 1.04 | 0.00 | 93 | 1014.4 |
| 20260508040057 | 10 | 0 | 0.0 | 1.6 | 0.00 | 1.04 | 0.00 | 94 | 1014.4 |
| 20260508034548 | 11 | 0 | 0.0 | 0.0 | 0.00 | 1.14 | 1.04 | 93 | 1014.3 |
| 20260508033109 | 11 | 0 | 0.0 | 1.6 | 0.00 | 1.14 | 1.04 | 93 | 1014.5 |
| 20260508031558 | 11 | 0 | 0.0 | 0.0 | 0.00 | 1.14 | 1.04 | 94 | 1013.9 |
| 20260508030103 | 11 | 0 | 0.0 | 0.0 | 0.00 | 1.14 | 1.04 | 93 | 1014.0 |
| 20260508024613 | 11 | 0 | 0.0 | 1.6 | 0.00 | 1.17 | 1.04 | 93 | 1014.0 |
| 20260508023049 | 11 | 0 | 0.0 | 1.6 | 0.00 | 1.17 | 1.04 | 93 | 1013.7 |
| 20260508021552 | 11 | 0 | 0.0 | 0.0 | 0.00 | 1.17 | 1.04 | 92 | 1013.6 |
| 20260508020105 | 12 | 0 | 0.0 | 0.0 | 0.00 | 1.17 | 1.04 | 92 | 1013.4 |
| 20260508014606 | 12 | 0 | 0.0 | 1.6 | 0.00 | 1.19 | 1.04 | 92 | 1012.9 |
| 20260508013101 | 12 | 0 | 0.0 | 1.6 | 0.00 | 1.19 | 1.04 | 91 | 1012.7 |
| 20260508011554 | 12 | 0 | 0.0 | 1.6 | 0.00 | 1.19 | 1.04 | 91 | 1012.3 |
| 20260508010104 | 13 | 0 | 0.0 | 0.0 | 0.00 | 1.19 | 1.04 | 91 | 1012.0 |
| 20260508004549 | 13 | 0 | 0.0 | 1.6 | 0.00 | 1.19 | 1.04 | 91 | 1012.1 |
| 20260508003053 | 13 | 0 | 0.0 | 1.6 | 0.00 | 1.19 | 1.04 | 91 | 1012.1 |